| time (UTC) | temp F | wind direction | speed MPH | gust MPH | rain 1hr in | rain 24hr in | rain mn in | humidity % | barometer mb |
| 20260901071510 | 71 | 314 | 3.0 | 9.0 | 0.00 | 0.00 | 0.00 | 43 | 1017.1 |
| 20260901070006 | 72 | 302 | 4.0 | 7.0 | 0.00 | 0.00 | 0.00 | 50 | 1017.0 |
| 20260901064505 | 75 | 169 | 0.0 | 2.0 | 0.00 | 0.00 | 0.00 | 57 | 1017.2 |
| 20260901063011 | 75 | 170 | 1.0 | 5.0 | 0.00 | 0.00 | 0.00 | 61 | 1017.3 |
| 20260901061503 | 76 | 105 | 2.0 | 8.0 | 0.00 | 0.00 | 0.00 | 60 | 1017.4 |
| 20260901060100 | 76 | 45 | 3.0 | 6.0 | 0.00 | 0.00 | 0.00 | 61 | 1017.3 |
| 20260901054559 | 75 | 43 | 4.0 | 7.0 | 0.00 | 0.00 | 0.00 | 63 | 1017.5 |
| 20260901053104 | 75 | 355 | 2.0 | 9.0 | 0.00 | 0.00 | 0.00 | 63 | 1017.6 |
| 20260901051559 | 74 | 68 | 3.0 | 10.0 | 0.00 | 0.00 | 0.00 | 64 | 1017.7 |
| 20260901050052 | 74 | 18 | 3.0 | 10.0 | 0.00 | 0.00 | 0.00 | 64 | 1018.1 |
| 20260901044553 | 73 | 95 | 4.0 | 9.0 | 0.00 | 0.00 | 0.00 | 66 | 1018.2 |
| 20260901043045 | 73 | 32 | 2.0 | 9.0 | 0.00 | 0.00 | 0.00 | 66 | 1018.2 |
| 20260901041611 | 72 | 350 | 2.0 | 8.0 | 0.00 | 0.00 | 0.00 | 67 | 1018.3 |
| 20260901040104 | 73 | 51 | 5.0 | 9.0 | 0.00 | 0.00 | 0.00 | 66 | 1018.5 |
| 20260901034541 | 72 | 129 | 3.0 | 9.0 | 0.00 | 0.00 | 0.00 | 67 | 1018.7 |
| 20260901033040 | 72 | 34 | 4.0 | 11.0 | 0.00 | 0.00 | 0.00 | 66 | 1019.0 |
| 20260901031538 | 71 | 355 | 6.0 | 14.0 | 0.00 | 0.00 | 0.00 | 66 | 1019.2 |
| 20260901030038 | 72 | 35 | 7.0 | 12.0 | 0.00 | 0.00 | 0.00 | 66 | 1019.4 |
| 20260901024535 | 71 | 29 | 5.0 | 11.0 | 0.00 | 0.00 | 0.00 | 65 | 1019.7 |
| 20260901023044 | 71 | 31 | 6.0 | 11.0 | 0.00 | 0.00 | 0.00 | 64 | 1020.1 |
| 20260901021542 | 71 | 50 | 4.0 | 10.0 | 0.00 | 0.00 | 0.00 | 64 | 1020.7 |
| 20260901020040 | 72 | 5 | 5.0 | 9.0 | 0.00 | 0.00 | 0.00 | 64 | 1021.3 |
| 20260901014536 | 71 | 93 | 4.0 | 10.0 | 0.00 | 0.00 | 0.00 | 65 | 1021.7 |
| 20260901013034 | 71 | 193 | 3.0 | 8.0 | 0.00 | 0.00 | 0.00 | 61 | 1022.0 |
| 20260901011537 | 72 | 47 | 3.0 | 7.0 | 0.00 | 0.00 | 0.00 | 61 | 1022.5 |
| 20260901010039 | 73 | 83 | 4.0 | 8.0 | 0.00 | 0.00 | 0.00 | 59 | 1022.8 |
| 20260901004532 | 71 | 46 | 3.0 | 9.0 | 0.00 | 0.00 | 0.00 | 63 | 1023.1 |
| 20260901003024 | 70 | 62 | 3.0 | 6.0 | 0.00 | 0.00 | 0.00 | 59 | 1023.4 |
| 20260901001527 | 70 | 47 | 3.0 | 7.0 | 0.00 | 0.00 | 0.00 | 58 | 1023.6 |
| 20260901000018 | 70 | 16 | 3.0 | 7.0 | 0.00 | 0.00 | 0.00 | 56 | 1023.9 |
| 20260831234515 | 69 | 91 | 2.0 | 6.0 | 0.00 | 0.00 | 0.00 | 56 | 1024.2 |
| 20260831233026 | 69 | 51 | 3.0 | 7.0 | 0.00 | 0.00 | 0.00 | 59 | 1024.6 |
| 20260831231518 | 69 | 76 | 1.0 | 5.0 | 0.00 | 0.00 | 0.00 | 58 | 1024.7 |
| 20260831230009 | 68 | 91 | 2.0 | 6.0 | 0.00 | 0.00 | 0.00 | 58 | 1024.8 |
| 20260831224503 | 65 | 42 | 2.0 | 5.0 | 0.00 | 0.00 | 0.00 | 64 | 1025.0 |
| 20260831223108 | 61 | 37 | 3.0 | 5.0 | 0.00 | 0.00 | 0.00 | 69 | 1025.2 |
| 20260831221558 | 60 | 49 | 2.0 | 5.0 | 0.00 | 0.00 | 0.00 | 70 | 1025.5 |
| 20260831220052 | 60 | 68 | 2.0 | 4.0 | 0.00 | 0.00 | 0.00 | 72 | 1025.5 |
| 20260831214555 | 56 | 16 | 2.0 | 4.0 | 0.00 | 0.00 | 0.00 | 79 | 1025.4 |
| 20260831213044 | 55 | 5 | 0.0 | 3.0 | 0.00 | 0.00 | 0.00 | 82 | 1025.4 |
| 20260831211541 | 52 | 351 | 0.0 | 3.0 | 0.00 | 0.00 | 0.00 | 86 | 1025.2 |
| 20260831210040 | 51 | 351 | 0.0 | 2.0 | 0.00 | 0.00 | 0.00 | 86 | 1025.3 |
| 20260831204540 | 51 | 350 | 0.0 | 3.0 | 0.00 | 0.00 | 0.00 | 85 | 1025.1 |
| 20260831203041 | 51 | 337 | 0.0 | 3.0 | 0.00 | 0.00 | 0.00 | 86 | 1025.1 |
| 20260831201538 | 51 | 337 | 0.0 | 2.0 | 0.00 | 0.00 | 0.00 | 85 | 1025.0 |
| 20260831200040 | 52 | 337 | 0.0 | 2.0 | 0.00 | 0.00 | 0.00 | 86 | 1025.0 |
| 20260831194553 | 53 | 337 | 0.0 | 2.0 | 0.00 | 0.00 | 0.00 | 86 | 1025.0 |
| 20260831193039 | 53 | 337 | 0.0 | 2.0 | 0.00 | 0.00 | 0.00 | 86 | 1025.0 |
| 20260831191537 | 52 | 337 | 0.0 | 1.0 | 0.00 | 0.00 | 0.00 | 85 | 1025.0 |
| 20260831190035 | 52 | 337 | 0.0 | 1.0 | 0.00 | 0.00 | 0.00 | 85 | 1025.0 |
| 20260831184535 | 52 | 337 | 0.0 | 0.0 | 0.00 | 0.00 | 0.00 | 84 | 1025.0 |
| 20260831183035 | 52 | 337 | 0.0 | 0.0 | 0.00 | 0.00 | 0.00 | 84 | 1025.1 |
| 20260831181532 | 52 | 337 | 0.0 | 0.0 | 0.00 | 0.00 | 0.00 | 83 | 1024.9 |
| 20260831180033 | 53 | 337 | 0.0 | 2.0 | 0.00 | 0.00 | 0.00 | 83 | 1025.0 |
| 20260831174532 | 53 | 337 | 0.0 | 0.0 | 0.00 | 0.00 | 0.00 | 83 | 1025.0 |
| 20260831173029 | 53 | 337 | 0.0 | 0.0 | 0.00 | 0.00 | 0.00 | 83 | 1025.1 |
| 20260831171528 | 53 | 337 | 0.0 | 0.0 | 0.00 | 0.00 | 0.00 | 83 | 1025.1 |
| 20260831170037 | 53 | 337 | 0.0 | 1.0 | 0.00 | 0.00 | 0.00 | 85 | 1025.2 |
| 20260831164526 | 51 | 337 | 0.0 | 0.0 | 0.00 | 0.01 | 0.00 | 87 | 1025.2 |
| 20260831163024 | 51 | 337 | 0.0 | 2.0 | 0.00 | 0.01 | 0.00 | 87 | 1025.4 |
| 20260831161523 | 52 | 338 | 1.0 | 3.0 | 0.00 | 0.01 | 0.00 | 87 | 1025.6 |
| 20260831160025 | 51 | 346 | 0.0 | 2.0 | 0.00 | 0.01 | 0.00 | 88 | 1025.9 |
| 20260831154529 | 52 | 346 | 0.0 | 3.0 | 0.00 | 0.01 | 0.00 | 87 | 1026.1 |
| 20260831153018 | 52 | 347 | 0.0 | 0.0 | 0.00 | 0.01 | 0.00 | 88 | 1026.4 |
| 20260831151513 | 52 | 347 | 0.0 | 2.0 | 0.00 | 0.01 | 0.00 | 87 | 1026.6 |
| 20260831150009 | 52 | 347 | 0.0 | 2.0 | 0.00 | 0.01 | 0.00 | 87 | 1026.8 |
| 20260831144508 | 52 | 347 | 0.0 | 1.0 | 0.00 | 0.01 | 0.00 | 87 | 1026.9 |
| 20260831143005 | 53 | 347 | 0.0 | 1.0 | 0.00 | 0.01 | 0.00 | 86 | 1027.0 |
| 20260831141503 | 53 | 347 | 0.0 | 0.0 | 0.00 | 0.01 | 0.00 | 85 | 1027.1 |
| 20260831140001 | 53 | 347 | 0.0 | 0.0 | 0.00 | 0.01 | 0.01 | 84 | 1027.1 |
| 20260831134600 | 54 | 347 | 0.0 | 0.0 | 0.00 | 0.01 | 0.01 | 84 | 1027.2 |
| 20260831133103 | 55 | 347 | 1.0 | 3.0 | 0.00 | 0.01 | 0.01 | 83 | 1027.4 |
| 20260831131606 | 55 | 349 | 0.0 | 3.0 | 0.00 | 0.01 | 0.01 | 83 | 1027.4 |
| 20260831124606 | 56 | 349 | 1.0 | 4.0 | 0.00 | 0.01 | 0.01 | 82 | 1027.6 |
| 20260831123057 | 56 | 346 | 2.0 | 5.0 | 0.00 | 0.01 | 0.01 | 80 | 1027.7 |
| 20260831121557 | 57 | 10 | 1.0 | 4.0 | 0.00 | 0.01 | 0.01 | 80 | 1027.6 |
| 20260831120057 | 57 | 10 | 1.0 | 4.0 | 0.00 | 0.01 | 0.01 | 79 | 1027.8 |
| 20260831114558 | 57 | 5 | 2.0 | 4.0 | 0.00 | 0.01 | 0.01 | 80 | 1027.8 |
| 20260831113057 | 57 | 32 | 1.0 | 5.0 | 0.00 | 0.01 | 0.01 | 80 | 1027.9 |
| 20260831111555 | 58 | 19 | 0.0 | 5.0 | 0.00 | 0.01 | 0.01 | 80 | 1028.0 |
| 20260831110055 | 58 | 32 | 2.0 | 5.0 | 0.00 | 0.01 | 0.01 | 79 | 1028.0 |
| 20260831104604 | 59 | 21 | 2.0 | 5.0 | 0.00 | 0.01 | 0.01 | 80 | 1028.1 |
| 20260831103053 | 60 | 39 | 3.0 | 8.0 | 0.00 | 0.01 | 0.01 | 82 | 1028.0 |
| 20260831101553 | 60 | 49 | 2.0 | 6.0 | 0.00 | 0.01 | 0.01 | 84 | 1027.9 |
| 20260831100103 | 61 | 60 | 3.0 | 9.0 | 0.00 | 0.01 | 0.01 | 86 | 1027.9 |
| 20260831094551 | 61 | 10 | 3.0 | 7.0 | 0.00 | 0.01 | 0.01 | 86 | 1027.8 |
| 20260831093050 | 61 | 54 | 4.0 | 9.0 | 0.00 | 0.01 | 0.01 | 85 | 1027.9 |
| 20260831091551 | 61 | 35 | 3.0 | 8.0 | 0.00 | 0.01 | 0.01 | 85 | 1027.9 |
| 20260831090049 | 61 | 43 | 4.0 | 9.0 | 0.00 | 0.01 | 0.01 | 85 | 1027.9 |
| 20260831084558 | 62 | 360 | 4.0 | 10.0 | 0.00 | 0.01 | 0.01 | 84 | 1027.8 |
| 20260831083048 | 62 | 341 | 4.0 | 7.0 | 0.00 | 0.01 | 0.01 | 84 | 1027.6 |
| 20260831081547 | 62 | 37 | 4.0 | 11.0 | 0.00 | 0.01 | 0.01 | 83 | 1027.6 |
| 20260831080055 | 62 | 14 | 4.0 | 10.0 | 0.00 | 0.01 | 0.01 | 83 | 1027.6 |
| 20260831074546 | 63 | 41 | 4.0 | 10.0 | 0.00 | 0.01 | 0.01 | 82 | 1027.5 |
| 20260831073047 | 63 | 353 | 4.0 | 9.0 | 0.00 | 0.01 | 0.01 | 80 | 1027.4 |